User: anonymous   Login
Location: Narvik
(68.4360°N, 17.4370°E)
Time: 01:53:04
(UTC+02:00)
Language:

AO-73 - Orbit

View from above orbital plane
View from above orbital plane
View from above satellite
View from above satellite

Ground track
Ground track

The orbit data is extracted from the following two-line orbital elements,

1 39444U 13066AE  20267.45591673 +.00000226 +00000-0 +34069-4 0  9993
2 39444 097.5646 262.3352 0056695 309.3420 050.2777 14.82183426367887
Epoch (UTC): 23 September 2020 10:56:31
Eccentricity: 0.0056695
inclination: 97.5646°
perigee height: 583 km
apogee height: 662 km
right ascension of ascending node: 262.3352°
argument of perigee: 309.3420°
revolutions per day: 14.82183426
mean anomaly at epoch: 50.2777°
orbit number at epoch: 36788

The dashed part of the orbit path shows where the satellite is in the earth's shadow,  

DLR